Time,TemperatureF,DewpointF,PressureIn,WindDirection,WindDirectionDegrees,WindSpeedMPH,WindSpeedGustMPH,Humidity,HourlyPrecipIn,Conditions,Clouds,dailyrainin,SoftwareType,DateUTC
2013-09-23 00:02:00,60.3,52.7,29.87,South,171,1.0,8.0,76,0.00,CLR,SKC,0.00,WeatherDisplay:10.37,2013-09-23 05:02:00,
2013-09-23 00:07:00,60.2,52.6,29.87,SSE,166,2.0,5.0,76,0.00,CLR,SKC,0.00,WeatherDisplay:10.37,2013-09-23 05:07:00,
2013-09-23 00:12:00,60.1,52.5,29.87,SSE,166,1.0,3.0,76,0.00,CLR,SKC,0.00,WeatherDisplay:10.37,2013-09-23 05:12:00,
2013-09-23 00:17:00,60.0,52.7,29.87,SSE,157,1.0,5.0,77,0.00,CLR,SKC,0.00,WeatherDisplay:10.37,2013-09-23 05:17:00,
2013-09-23 00:22:00,59.8,52.6,29.87,SSE,154,0.0,3.0,77,0.00,CLR,SKC,0.00,WeatherDisplay:10.37,2013-09-23 05:22:00,
2013-09-23 00:27:00,59.6,52.7,29.87,South,172,0.0,3.0,78,0.00,CLR,SKC,0.00,WeatherDisplay:10.37,2013-09-23 05:27:00,
2013-09-23 00:32:00,59.4,52.6,29.87,South,188,1.0,3.0,78,0.00,CLR,SKC,0.00,WeatherDisplay:10.37,2013-09-23 05:32:00,
2013-09-23 00:37:00,59.3,52.8,29.87,SSE,164,0.0,3.0,79,0.00,CLR,SKC,0.00,WeatherDisplay:10.37,2013-09-23 05:37:00,
2013-09-23 00:42:00,59.1,52.6,29.87,SSE,152,0.0,2.0,79,0.00,CLR,SKC,0.00,WeatherDisplay:10.37,2013-09-23 05:42:00,
2013-09-23 00:47:00,58.9,52.8,29.87,SSE,161,0.0,1.0,80,0.00,CLR,SKC,0.00,WeatherDisplay:10.37,2013-09-23 05:47:00,
2013-09-23 00:52:00,58.7,52.5,29.87,SSE,159,0.0,0.0,80,0.00,CLR,SKC,0.00,WeatherDisplay:10.37,2013-09-23 05:52:00,
2013-09-23 00:57:00,58.4,52.6,29.87,SSE,150,0.0,3.0,81,0.00,CLR,SKC,0.00,WeatherDisplay:10.37,2013-09-23 05:57:00,
2013-09-23 01:02:00,58.2,52.4,29.87,SE,141,0.0,3.0,81,0.00,CLR,SKC,0.00,WeatherDisplay:10.37,2013-09-23 06:02:00,
2013-09-23 01:07:00,58.1,52.3,29.87,SSE,147,0.0,2.0,81,0.00,CLR,SKC,0.00,WeatherDisplay:10.37,2013-09-23 06:07:00,
2013-09-23 01:12:00,57.9,52.5,29.86,SE,131,0.0,1.0,82,0.00,CLR,SKC,0.00,WeatherDisplay:10.37,2013-09-23 06:12:00,
2013-09-23 01:17:00,57.7,52.6,29.86,ESE,112,0.0,2.0,83,0.00,CLR,SKC,0.00,WeatherDisplay:10.37,2013-09-23 06:17:00,
2013-09-23 01:22:00,57.7,52.6,29.86,ESE,115,0.0,3.0,83,0.00,CLR,SKC,0.00,WeatherDisplay:10.37,2013-09-23 06:22:00,
2013-09-23 01:27:00,57.6,52.5,29.86,SE,142,0.0,2.0,83,0.00,CLR,SKC,0.00,WeatherDisplay:10.37,2013-09-23 06:27:00,
2013-09-23 01:32:00,57.5,52.4,29.86,SSE,148,0.0,1.0,83,0.00,CLR,SKC,0.00,WeatherDisplay:10.37,2013-09-23 06:32:00,
2013-09-23 01:37:00,57.4,52.6,29.86,SSE,163,1.0,3.0,84,0.00,CLR,SKC,0.00,WeatherDisplay:10.37,2013-09-23 06:37:00,
2013-09-23 01:42:00,57.4,52.6,29.86,SSE,151,1.0,2.0,84,0.00,CLR,SKC,0.00,WeatherDisplay:10.37,2013-09-23 06:42:00,
2013-09-23 01:47:00,57.4,52.6,29.86,SSE,147,0.0,2.0,84,0.00,CLR,SKC,0.00,WeatherDisplay:10.37,2013-09-23 06:47:00,
2013-09-23 01:52:00,57.3,52.5,29.86,SE,141,0.0,3.0,84,0.00,CLR,SKC,0.00,WeatherDisplay:10.37,2013-09-23 06:52:00,
2013-09-23 01:57:00,57.1,52.3,29.86,SE,146,0.0,3.0,84,0.00,CLR,SKC,0.00,WeatherDisplay:10.37,2013-09-23 06:57:00,
2013-09-23 02:02:00,56.8,52.4,29.86,SSE,149,0.0,0.0,85,0.00,CLR,SKC,0.00,WeatherDisplay:10.37,2013-09-23 07:02:00,
2013-09-23 02:07:00,56.6,52.2,29.86,SE,143,0.0,0.0,85,0.00,CLR,SKC,0.00,WeatherDisplay:10.37,2013-09-23 07:07:00,
2013-09-23 02:12:00,56.5,52.1,29.87,SE,135,0.0,2.0,85,0.00,CLR,SKC,0.00,WeatherDisplay:10.37,2013-09-23 07:12:00,
2013-09-23 02:17:00,56.4,52.0,29.87,SE,133,0.0,0.0,85,0.00,CLR,SKC,0.00,WeatherDisplay:10.37,2013-09-23 07:17:00,
2013-09-23 02:22:00,56.3,52.1,29.87,SE,132,0.0,0.0,86,0.00,CLR,SKC,0.00,WeatherDisplay:10.37,2013-09-23 07:22:00,
2013-09-23 02:27:00,56.0,51.9,29.87,SE,130,0.0,2.0,86,0.00,CLR,SKC,0.00,WeatherDisplay:10.37,2013-09-23 07:27:00,
2013-09-23 02:32:00,55.8,52.0,29.87,ESE,123,0.0,1.0,87,0.00,CLR,SKC,0.00,WeatherDisplay:10.37,2013-09-23 07:32:00,
2013-09-23 02:37:00,55.6,51.8,29.86,ESE,115,0.0,0.0,87,0.00,CLR,SKC,0.00,WeatherDisplay:10.37,2013-09-23 07:37:00,
2013-09-23 02:42:00,55.4,51.6,29.86,SE,125,0.0,2.0,87,0.00,CLR,SKC,0.00,WeatherDisplay:10.37,2013-09-23 07:42:00,
2013-09-23 02:47:00,55.2,51.7,29.86,SE,146,0.0,2.0,88,0.00,CLR,SKC,0.00,WeatherDisplay:10.37,2013-09-23 07:47:00,
2013-09-23 02:52:00,55.1,51.6,29.86,SSE,150,0.0,0.0,88,0.00,CLR,SKC,0.00,WeatherDisplay:10.37,2013-09-23 07:52:00,
2013-09-23 02:57:00,55.0,51.5,29.86,SSE,150,0.0,0.0,88,0.00,CLR,SKC,0.00,WeatherDisplay:10.37,2013-09-23 07:57:00,
2013-09-23 03:02:00,54.9,51.7,29.86,SSE,150,0.0,0.0,89,0.00,CLR,SKC,0.00,WeatherDisplay:10.37,2013-09-23 08:02:00,
2013-09-23 03:07:00,54.8,51.6,29.86,SSE,150,0.0,0.0,89,0.00,CLR,SKC,0.00,WeatherDisplay:10.37,2013-09-23 08:07:00,
2013-09-23 03:12:00,54.6,51.4,29.86,SSE,150,0.0,0.0,89,0.00,CLR,SKC,0.00,WeatherDisplay:10.37,2013-09-23 08:12:00,
2013-09-23 03:17:00,54.4,51.2,29.86,SSE,150,0.0,0.0,89,0.00,CLR,SKC,0.00,WeatherDisplay:10.37,2013-09-23 08:17:00,
2013-09-23 03:22:00,54.2,51.4,29.87,SSE,149,0.0,0.0,90,0.00,CLR,SKC,0.00,WeatherDisplay:10.37,2013-09-23 08:22:00,
2013-09-23 03:27:00,54.0,51.1,29.87,SSE,149,0.0,0.0,90,0.00,CLR,SKC,0.00,WeatherDisplay:10.37,2013-09-23 08:27:00,
2013-09-23 03:32:00,53.8,51.0,29.87,SSE,149,0.0,0.0,90,0.00,CLR,SKC,0.00,WeatherDisplay:10.37,2013-09-23 08:32:00,
2013-09-23 03:37:00,53.7,51.2,29.86,SSE,149,0.0,0.0,91,0.00,CLR,SKC,0.00,WeatherDisplay:10.37,2013-09-23 08:37:00,
2013-09-23 03:42:00,53.7,51.2,29.87,SSE,149,0.0,0.0,91,0.00,CLR,SKC,0.00,WeatherDisplay:10.37,2013-09-23 08:42:00,
2013-09-23 03:47:00,53.6,51.1,29.87,SSE,149,0.0,0.0,91,0.00,CLR,SKC,0.00,WeatherDisplay:10.37,2013-09-23 08:47:00,
2013-09-23 03:52:00,53.6,51.0,29.87,SSE,149,0.0,0.0,91,0.00,CLR,SKC,0.00,WeatherDisplay:10.37,2013-09-23 08:52:00,
2013-09-23 03:57:00,53.4,50.9,29.87,SSE,149,0.0,0.0,91,0.00,CLR,SKC,0.00,WeatherDisplay:10.37,2013-09-23 08:57:00,
2013-09-23 04:02:00,53.2,50.7,29.87,SSE,149,0.0,0.0,91,0.00,CLR,SKC,0.00,WeatherDisplay:10.37,2013-09-23 09:02:00,
2013-09-23 04:07:00,53.2,50.9,29.87,SSE,149,0.0,0.0,92,0.00,CLR,SKC,0.00,WeatherDisplay:10.37,2013-09-23 09:07:00,
2013-09-23 04:12:00,53.3,51.0,29.87,SE,144,0.0,2.0,92,0.00,CLR,SKC,0.00,WeatherDisplay:10.37,2013-09-23 09:12:00,
2013-09-23 04:22:00,53.5,51.3,29.87,ESE,121,0.0,0.0,92,0.00,CLR,SKC,0.00,WeatherDisplay:10.37,2013-09-23 09:22:00,
2013-09-23 04:27:00,53.8,51.5,29.87,SSE,155,1.0,5.0,92,0.00,CLR,SKC,0.00,WeatherDisplay:10.37,2013-09-23 09:27:00,
2013-09-23 04:32:00,54.0,51.4,29.87,South,185,0.0,3.0,91,0.00,CLR,SKC,0.00,WeatherDisplay:10.37,2013-09-23 09:32:00,
2013-09-23 04:37:00,54.2,51.6,29.87,SE,140,1.0,3.0,91,0.00,CLR,SKC,0.00,WeatherDisplay:10.37,2013-09-23 09:37:00,
2013-09-23 04:42:00,54.3,51.4,29.87,South,175,0.0,3.0,90,0.00,CLR,SKC,0.00,WeatherDisplay:10.37,2013-09-23 09:42:00,
2013-09-23 04:47:00,54.3,51.4,29.87,SSW,205,0.0,5.0,90,0.00,CLR,SKC,0.00,WeatherDisplay:10.37,2013-09-23 09:47:00,
2013-09-23 04:52:00,54.4,51.5,29.87,SSE,157,1.0,5.0,90,0.00,CLR,SKC,0.00,WeatherDisplay:10.37,2013-09-23 09:52:00,
2013-09-23 04:57:00,54.4,51.2,29.87,SE,143,0.0,5.0,89,0.00,CLR,SKC,0.00,WeatherDisplay:10.37,2013-09-23 09:57:00,
2013-09-23 05:02:00,54.4,51.2,29.87,SSE,151,2.0,7.0,89,0.00,CLR,SKC,0.00,WeatherDisplay:10.37,2013-09-23 10:02:00,
2013-09-23 05:07:00,54.5,51.3,29.88,SE,125,1.0,7.0,89,0.00,CLR,SKC,0.00,WeatherDisplay:10.37,2013-09-23 10:07:00,
2013-09-23 05:12:00,54.6,51.4,29.88,SE,129,1.0,7.0,89,0.00,CLR,SKC,0.00,WeatherDisplay:10.37,2013-09-23 10:12:00,
2013-09-23 05:17:00,54.6,51.4,29.88,SSE,153,2.0,5.0,89,0.00,CLR,SKC,0.00,WeatherDisplay:10.37,2013-09-23 10:17:00,
2013-09-23 05:22:00,54.6,51.4,29.88,SSE,168,0.0,3.0,89,0.00,CLR,SKC,0.00,WeatherDisplay:10.37,2013-09-23 10:22:00,
2013-09-23 05:27:00,54.5,51.3,29.88,SE,140,0.0,3.0,89,0.00,CLR,SKC,0.00,WeatherDisplay:10.37,2013-09-23 10:27:00,
2013-09-23 05:32:00,54.4,51.2,29.88,SE,137,0.0,2.0,89,0.00,CLR,SKC,0.00,WeatherDisplay:10.37,2013-09-23 10:32:00,
2013-09-23 05:42:00,54.3,51.1,29.88,SE,146,0.0,5.0,89,0.00,CLR,SKC,0.00,WeatherDisplay:10.37,2013-09-23 10:42:00,
2013-09-23 05:47:00,54.1,50.9,29.88,SE,146,0.0,3.0,89,0.00,CLR,SKC,0.00,WeatherDisplay:10.37,2013-09-23 10:47:00,
2013-09-23 05:52:00,54.1,50.9,29.88,SE,133,0.0,6.0,89,0.00,CLR,SKC,0.00,WeatherDisplay:10.37,2013-09-23 10:52:00,
2013-09-23 05:57:00,54.1,51.3,29.88,SE,139,0.0,5.0,90,0.00,CLR,SKC,0.00,WeatherDisplay:10.37,2013-09-23 10:57:00,
2013-09-23 06:02:00,54.2,51.3,29.88,SSE,151,2.0,5.0,90,0.00,CLR,SKC,0.00,WeatherDisplay:10.37,2013-09-23 11:02:00,
2013-09-23 06:07:00,54.2,51.4,29.87,SE,141,2.0,7.0,90,0.00,CLR,SKC,0.00,WeatherDisplay:10.37,2013-09-23 11:07:00,
2013-09-23 06:12:00,54.3,51.1,29.87,SSE,155,5.0,10.0,89,0.00,CLR,SKC,0.00,WeatherDisplay:10.37,2013-09-23 11:12:00,
2013-09-23 06:17:00,54.4,51.2,29.87,South,171,0.0,7.0,89,0.00,CLR,SKC,0.00,WeatherDisplay:10.37,2013-09-23 11:17:00,
2013-09-23 06:22:00,54.4,51.2,29.87,South,176,1.0,5.0,89,0.00,CLR,SKC,0.00,WeatherDisplay:10.37,2013-09-23 11:22:00,
2013-09-23 06:27:00,54.4,51.2,29.88,SSE,161,2.0,5.0,89,0.00,CLR,SKC,0.00,WeatherDisplay:10.37,2013-09-23 11:27:00,
2013-09-23 06:32:00,54.3,51.1,29.88,SE,146,0.0,7.0,89,0.00,CLR,SKC,0.00,WeatherDisplay:10.37,2013-09-23 11:32:00,
2013-09-23 06:37:00,54.2,51.0,29.88,SSE,148,3.0,8.0,89,0.00,CLR,SKC,0.00,WeatherDisplay:10.37,2013-09-23 11:37:00,
2013-09-23 06:42:00,54.2,51.0,29.88,SSE,160,2.0,10.0,89,0.00,CLR,SKC,0.00,WeatherDisplay:10.37,2013-09-23 11:42:00,
2013-09-23 06:52:00,54.3,51.1,29.88,SSE,159,1.0,5.0,89,0.00,CLR,SKC,0.00,WeatherDisplay:10.37,2013-09-23 11:52:00,
2013-09-23 07:02:00,54.4,51.2,29.88,South,190,1.0,5.0,89,0.00,CLR,SKC,0.00,WeatherDisplay:10.37,2013-09-23 12:02:00,
2013-09-23 07:07:00,54.5,51.3,29.88,South,172,1.0,5.0,89,0.00,CLR,SKC,0.00,WeatherDisplay:10.37,2013-09-23 12:07:00,
2013-09-23 07:12:00,54.6,51.4,29.89,South,185,2.0,8.0,89,0.00,CLR,SKC,0.00,WeatherDisplay:10.37,2013-09-23 12:12:00,
2013-09-23 07:17:00,54.7,51.2,29.89,SSW,194,0.0,8.0,88,0.00,CLR,SKC,0.00,WeatherDisplay:10.37,2013-09-23 12:17:00,
2013-09-23 07:22:00,54.9,51.4,29.89,South,184,3.0,11.0,88,0.00,CLR,SKC,0.00,WeatherDisplay:10.37,2013-09-23 12:22:00,
2013-09-23 07:27:00,55.0,51.5,29.89,South,178,2.0,7.0,88,0.00,CLR,SKC,0.00,WeatherDisplay:10.37,2013-09-23 12:27:00,
2013-09-23 07:32:00,55.1,51.3,29.89,South,185,5.0,8.0,87,0.00,CLR,SKC,0.00,WeatherDisplay:10.37,2013-09-23 12:32:00,
2013-09-23 07:42:00,55.4,51.6,29.89,South,171,3.0,10.0,87,0.00,CLR,SKC,0.00,WeatherDisplay:10.37,2013-09-23 12:42:00,
2013-09-23 07:47:00,55.5,51.7,29.89,South,171,3.0,12.0,87,0.00,CLR,SKC,0.00,WeatherDisplay:10.37,2013-09-23 12:47:00,
2013-09-23 07:52:00,55.7,51.5,29.89,SSW,197,7.0,13.0,86,0.00,CLR,SKC,0.00,WeatherDisplay:10.37,2013-09-23 12:52:00,
2013-09-23 07:57:00,55.9,51.8,29.89,South,170,5.0,12.0,86,0.00,CLR,SKC,0.00,WeatherDisplay:10.37,2013-09-23 12:57:00,
2013-09-23 08:02:00,56.0,51.9,29.89,SSE,162,1.0,12.0,86,0.00,CLR,SKC,0.00,WeatherDisplay:10.37,2013-09-23 13:02:00,
2013-09-23 08:07:00,56.3,51.8,29.89,SSW,195,3.0,12.0,85,0.00,CLR,SKC,0.00,WeatherDisplay:10.37,2013-09-23 13:07:00,
2013-09-23 08:12:00,56.5,52.0,29.89,South,172,5.0,13.0,85,0.00,CLR,SKC,0.00,WeatherDisplay:10.37,2013-09-23 13:12:00,
2013-09-23 08:17:00,56.8,52.0,29.90,South,176,3.0,13.0,84,0.00,CLR,SKC,0.00,WeatherDisplay:10.37,2013-09-23 13:17:00,
2013-09-23 08:22:00,57.0,52.2,29.89,South,170,6.0,13.0,84,0.00,CLR,SKC,0.00,WeatherDisplay:10.37,2013-09-23 13:22:00,
2013-09-23 08:27:00,57.3,52.5,29.90,SSE,157,3.0,7.0,84,0.00,CLR,SKC,0.00,WeatherDisplay:10.37,2013-09-23 13:27:00,
2013-09-23 08:32:00,57.6,52.5,29.90,SSE,161,7.0,14.0,83,0.00,CLR,SKC,0.00,WeatherDisplay:10.37,2013-09-23 13:32:00,
2013-09-23 08:37:00,58.0,52.9,29.90,SSE,162,2.0,10.0,83,0.00,CLR,SKC,0.00,WeatherDisplay:10.37,2013-09-23 13:37:00,
2013-09-23 08:42:00,58.5,53.0,29.90,SSE,167,3.0,11.0,82,0.00,CLR,SKC,0.00,WeatherDisplay:10.37,2013-09-23 13:42:00,
2013-09-23 08:47:00,58.9,53.1,29.91,South,171,5.0,10.0,81,0.00,CLR,SKC,0.00,WeatherDisplay:10.37,2013-09-23 13:47:00,
2013-09-23 08:52:00,59.5,53.6,29.91,South,179,3.0,8.0,81,0.00,CLR,SKC,0.00,WeatherDisplay:10.37,2013-09-23 13:52:00,
2013-09-23 08:57:00,60.1,53.9,29.92,South,189,3.0,12.0,80,0.00,CLR,SKC,0.00,WeatherDisplay:10.37,2013-09-23 13:57:00,
2013-09-23 09:02:00,61.0,54.4,29.92,SSW,200,0.0,8.0,79,0.00,CLR,SKC,0.00,WeatherDisplay:10.37,2013-09-23 14:02:00,
2013-09-23 09:07:00,61.9,54.6,29.92,SW,220,3.0,10.0,77,0.00,CLR,SKC,0.00,WeatherDisplay:10.37,2013-09-23 14:07:00,
2013-09-23 09:12:00,62.6,54.9,29.92,South,190,5.0,12.0,76,0.00,CLR,SKC,0.00,WeatherDisplay:10.37,2013-09-23 14:12:00,
2013-09-23 09:17:00,63.4,54.9,29.92,South,191,5.0,12.0,74,0.00,CLR,SKC,0.00,WeatherDisplay:10.37,2013-09-23 14:17:00,
2013-09-23 09:22:00,64.0,55.5,29.92,South,190,3.0,16.0,74,0.00,CLR,SKC,0.00,WeatherDisplay:10.37,2013-09-23 14:22:00,
2013-09-23 09:32:00,64.9,55.3,29.92,South,185,7.0,15.0,71,0.00,CLR,SKC,0.00,WeatherDisplay:10.37,2013-09-23 14:32:00,
2013-09-23 09:37:00,65.0,55.0,29.92,SSE,167,6.0,20.0,70,0.00,CLR,SKC,0.00,WeatherDisplay:10.37,2013-09-23 14:37:00,
2013-09-23 09:42:00,65.3,55.2,29.92,SSE,162,8.0,15.0,70,0.00,CLR,SKC,0.00,WeatherDisplay:10.37,2013-09-23 14:42:00,
2013-09-23 09:47:00,65.6,55.6,29.92,SSE,166,3.0,13.0,70,0.00,CLR,SKC,0.00,WeatherDisplay:10.37,2013-09-23 14:47:00,
2013-09-23 09:52:00,65.9,55.4,29.92,South,172,6.0,18.0,69,0.00,CLR,SKC,0.00,WeatherDisplay:10.37,2013-09-23 14:52:00,
2013-09-23 09:57:00,66.2,55.3,29.92,South,173,9.0,16.0,68,0.00,CLR,SKC,0.00,WeatherDisplay:10.37,2013-09-23 14:57:00,
2013-09-23 10:02:00,66.4,55.5,29.92,SSE,165,7.0,21.0,68,0.00,CLR,SKC,0.00,WeatherDisplay:10.37,2013-09-23 15:02:00,
2013-09-23 10:12:00,67.1,55.7,29.92,South,181,9.0,13.0,67,0.00,CLR,SKC,0.00,WeatherDisplay:10.37,2013-09-23 15:12:00,
2013-09-23 10:17:00,67.5,56.2,29.92,South,186,7.0,12.0,67,0.00,CLR,SKC,0.00,WeatherDisplay:10.37,2013-09-23 15:17:00,
2013-09-23 10:22:00,67.8,55.6,29.91,South,176,7.0,18.0,65,0.00,CLR,SKC,0.00,WeatherDisplay:10.37,2013-09-23 15:22:00,
2013-09-23 10:27:00,68.0,55.8,29.91,South,183,8.0,20.0,65,0.00,CLR,SKC,0.00,WeatherDisplay:10.37,2013-09-23 15:27:00,
2013-09-23 10:32:00,68.5,56.2,29.91,South,185,6.0,16.0,65,0.00,CLR,SKC,0.00,WeatherDisplay:10.37,2013-09-23 15:32:00,
2013-09-23 10:37:00,68.8,55.7,29.91,SSW,194,10.0,21.0,63,0.00,CLR,SKC,0.00,WeatherDisplay:10.37,2013-09-23 15:37:00,
2013-09-23 10:47:00,69.1,55.9,29.91,SW,222,3.0,16.0,63,0.00,CLR,SKC,0.00,WeatherDisplay:10.37,2013-09-23 15:47:00,
2013-09-23 10:52:00,69.8,56.7,29.90,SW,217,6.0,13.0,63,0.00,CLR,SKC,0.00,WeatherDisplay:10.37,2013-09-23 15:52:00,
2013-09-23 10:57:00,70.4,56.7,29.90,South,174,2.0,13.0,62,0.00,CLR,SKC,0.00,WeatherDisplay:10.37,2013-09-23 15:57:00,
2013-09-23 11:02:00,70.6,54.6,29.90,South,176,12.0,16.0,57,0.00,CLR,SKC,0.00,WeatherDisplay:10.37,2013-09-23 16:02:00,
2013-09-23 11:07:00,70.5,54.5,29.90,South,170,10.0,18.0,57,0.00,CLR,SKC,0.00,WeatherDisplay:10.37,2013-09-23 16:07:00,
2013-09-23 11:12:00,70.6,54.6,29.90,South,183,8.0,22.0,57,0.00,CLR,SKC,0.00,WeatherDisplay:10.37,2013-09-23 16:12:00,
2013-09-23 11:17:00,70.9,54.9,29.90,SSW,195,7.0,22.0,57,0.00,CLR,SKC,0.00,WeatherDisplay:10.37,2013-09-23 16:17:00,
2013-09-23 11:22:00,71.1,55.6,29.89,South,177,8.0,12.0,58,0.00,CLR,SKC,0.00,WeatherDisplay:10.37,2013-09-23 16:22:00,
2013-09-23 11:27:00,71.3,55.8,29.89,SSE,155,10.0,13.0,58,0.00,CLR,SKC,0.00,WeatherDisplay:10.37,2013-09-23 16:27:00,
2013-09-23 11:32:00,71.4,55.4,29.89,South,181,5.0,16.0,57,0.00,CLR,SKC,0.00,WeatherDisplay:10.37,2013-09-23 16:32:00,
2013-09-23 11:37:00,71.5,55.0,29.89,South,189,9.0,18.0,56,0.00,CLR,SKC,0.00,WeatherDisplay:10.37,2013-09-23 16:37:00,
2013-09-23 11:42:00,71.5,55.5,29.89,South,189,8.0,18.0,57,0.00,CLR,SKC,0.00,WeatherDisplay:10.37,2013-09-23 16:42:00,
2013-09-23 11:52:00,71.9,55.3,29.89,South,180,6.0,18.0,56,0.00,CLR,SKC,0.00,WeatherDisplay:10.37,2013-09-23 16:52:00,
2013-09-23 12:02:00,72.3,55.2,29.88,SSW,195,12.0,15.0,55,0.00,CLR,SKC,0.00,WeatherDisplay:10.37,2013-09-23 17:02:00,
2013-09-23 12:07:00,72.5,55.9,29.88,SSE,163,9.0,19.0,56,0.00,CLR,SKC,0.00,WeatherDisplay:10.37,2013-09-23 17:07:00,
2013-09-23 12:17:00,72.6,54.5,29.88,South,188,8.0,16.0,53,0.00,CLR,SKC,0.00,WeatherDisplay:10.37,2013-09-23 17:17:00,
2013-09-23 12:22:00,72.8,55.7,29.87,South,173,7.0,19.0,55,0.00,CLR,SKC,0.00,WeatherDisplay:10.37,2013-09-23 17:22:00,
2013-09-23 12:32:00,73.5,55.8,29.86,South,185,7.0,15.0,54,0.00,CLR,SKC,0.00,WeatherDisplay:10.37,2013-09-23 17:32:00,
2013-09-23 12:37:00,73.8,55.6,29.86,South,186,5.0,15.0,53,0.00,CLR,SKC,0.00,WeatherDisplay:10.37,2013-09-23 17:37:00,
2013-09-23 12:42:00,74.0,54.2,29.86,SSE,155,7.0,21.0,50,0.00,CLR,SKC,0.00,WeatherDisplay:10.37,2013-09-23 17:42:00,
2013-09-23 12:52:00,74.2,55.4,29.86,SSE,155,10.0,21.0,52,0.00,CLR,SKC,0.00,WeatherDisplay:10.37,2013-09-23 17:52:00,
2013-09-23 12:57:00,74.6,55.3,29.85,SSE,167,5.0,10.0,51,0.00,CLR,SKC,0.00,WeatherDisplay:10.37,2013-09-23 17:57:00,
2013-09-23 13:02:00,75.1,55.2,29.85,SSE,157,7.0,15.0,50,0.00,CLR,SKC,0.00,WeatherDisplay:10.37,2013-09-23 18:02:00,
2013-09-23 13:07:00,75.3,55.9,29.85,SE,134,6.0,15.0,51,0.00,CLR,SKC,0.00,WeatherDisplay:10.37,2013-09-23 18:07:00,
2013-09-23 13:12:00,75.4,56.0,29.85,SE,137,6.0,13.0,51,0.00,CLR,SKC,0.00,WeatherDisplay:10.37,2013-09-23 18:12:00,
2013-09-23 13:17:00,75.4,55.5,29.85,SSW,199,5.0,15.0,50,0.00,CLR,SKC,0.00,WeatherDisplay:10.37,2013-09-23 18:17:00,
2013-09-23 13:22:00,75.2,54.7,29.84,SSE,165,7.0,15.0,49,0.00,CLR,SKC,0.00,WeatherDisplay:10.37,2013-09-23 18:22:00,
2013-09-23 13:32:00,75.6,55.6,29.84,SE,141,5.0,10.0,50,0.00,CLR,SKC,0.00,WeatherDisplay:10.37,2013-09-23 18:32:00,
2013-09-23 13:42:00,76.1,56.1,29.83,South,172,7.0,18.0,50,0.00,CLR,SKC,0.00,WeatherDisplay:10.37,2013-09-23 18:42:00,
2013-09-23 13:52:00,75.9,55.3,29.83,SE,143,6.0,13.0,49,0.00,CLR,SKC,0.00,WeatherDisplay:10.37,2013-09-23 18:52:00,
2013-09-23 13:57:00,76.3,55.7,29.82,SSE,148,6.0,16.0,49,0.00,CLR,SKC,0.00,WeatherDisplay:10.37,2013-09-23 18:57:00,
2013-09-23 14:02:00,76.5,55.4,29.82,SE,145,9.0,18.0,48,0.00,CLR,SKC,0.00,WeatherDisplay:10.37,2013-09-23 19:02:00,
2013-09-23 14:12:00,76.3,55.8,29.81,SSE,167,8.0,15.0,49,0.00,CLR,SKC,0.00,WeatherDisplay:10.37,2013-09-23 19:12:00,
2013-09-23 14:22:00,76.8,55.6,29.81,SE,140,8.0,26.0,48,0.00,CLR,SKC,0.00,WeatherDisplay:10.37,2013-09-23 19:22:00,
2013-09-23 14:27:00,76.7,56.1,29.81,SSE,153,7.0,15.0,49,0.00,CLR,SKC,0.00,WeatherDisplay:10.37,2013-09-23 19:27:00,
2013-09-23 14:32:00,76.9,56.3,29.81,SSE,154,5.0,16.0,49,0.00,CLR,SKC,0.00,WeatherDisplay:10.37,2013-09-23 19:32:00,
2013-09-23 14:37:00,77.2,56.6,29.81,SSE,165,5.0,16.0,49,0.00,CLR,SKC,0.00,WeatherDisplay:10.37,2013-09-23 19:37:00,
2013-09-23 14:42:00,77.5,55.1,29.80,SSE,158,9.0,16.0,46,0.00,CLR,SKC,0.00,WeatherDisplay:10.37,2013-09-23 19:42:00,
2013-09-23 14:47:00,77.2,55.4,29.80,SE,143,9.0,20.0,47,0.00,CLR,SKC,0.00,WeatherDisplay:10.37,2013-09-23 19:47:00,
2013-09-23 14:52:00,77.5,55.0,29.80,SE,140,7.0,16.0,46,0.00,CLR,SKC,0.00,WeatherDisplay:10.37,2013-09-23 19:52:00,
2013-09-23 14:57:00,77.7,55.3,29.80,SSW,193,9.0,16.0,46,0.00,CLR,SKC,0.00,WeatherDisplay:10.37,2013-09-23 19:57:00,
2013-09-23 15:02:00,77.9,55.5,29.79,SSW,196,6.0,16.0,46,0.00,CLR,SKC,0.00,WeatherDisplay:10.37,2013-09-23 20:02:00,
2013-09-23 15:07:00,78.3,56.4,29.79,SE,137,6.0,16.0,47,0.00,CLR,SKC,0.00,WeatherDisplay:10.37,2013-09-23 20:07:00,
2013-09-23 15:12:00,78.1,56.2,29.79,SSE,153,6.0,18.0,47,0.00,CLR,SKC,0.00,WeatherDisplay:10.37,2013-09-23 20:12:00,
2013-09-23 15:17:00,78.2,55.7,29.79,SE,146,7.0,20.0,46,0.00,CLR,SKC,0.00,WeatherDisplay:10.37,2013-09-23 20:17:00,
2013-09-23 15:22:00,78.1,55.7,29.79,SSE,156,12.0,21.0,46,0.00,CLR,SKC,0.00,WeatherDisplay:10.37,2013-09-23 20:22:00,
2013-09-23 15:32:00,78.3,54.6,29.79,SE,140,9.0,20.0,44,0.00,CLR,SKC,0.00,WeatherDisplay:10.37,2013-09-23 20:32:00,
2013-09-23 15:37:00,78.2,54.5,29.80,SE,140,8.0,16.0,44,0.00,CLR,SKC,0.00,WeatherDisplay:10.37,2013-09-23 20:37:00,
2013-09-23 15:47:00,78.1,54.4,29.79,SSE,150,5.0,20.0,44,0.00,CLR,SKC,0.00,WeatherDisplay:10.37,2013-09-23 20:47:00,
2013-09-23 15:52:00,78.5,54.2,29.79,SE,132,6.0,14.0,43,0.00,CLR,SKC,0.00,WeatherDisplay:10.37,2013-09-23 20:52:00,
2013-09-23 15:57:00,78.3,54.6,29.79,SE,131,8.0,20.0,44,0.00,CLR,SKC,0.00,WeatherDisplay:10.37,2013-09-23 20:57:00,
2013-09-23 16:02:00,78.4,54.7,29.79,SE,138,6.0,22.0,44,0.00,CLR,SKC,0.00,WeatherDisplay:10.37,2013-09-23 21:02:00,
2013-09-23 16:07:00,78.4,54.1,29.80,SSE,157,3.0,16.0,43,0.00,CLR,SKC,0.00,WeatherDisplay:10.37,2013-09-23 21:07:00,
2013-09-23 16:17:00,78.9,55.1,29.79,South,187,6.0,19.0,44,0.00,CLR,SKC,0.00,WeatherDisplay:10.37,2013-09-23 21:17:00,
2013-09-23 16:27:00,78.5,54.8,29.79,SSE,149,9.0,18.0,44,0.00,CLR,SKC,0.00,WeatherDisplay:10.37,2013-09-23 21:27:00,
2013-09-23 16:32:00,78.2,55.1,29.79,SSE,150,9.0,21.0,45,0.00,CLR,SKC,0.00,WeatherDisplay:10.37,2013-09-23 21:32:00,
2013-09-23 16:37:00,78.3,55.8,29.78,South,174,2.0,10.0,46,0.00,CLR,SKC,0.00,WeatherDisplay:10.37,2013-09-23 21:37:00,
2013-09-23 16:42:00,78.6,55.5,29.79,SW,226,6.0,16.0,45,0.00,CLR,SKC,0.00,WeatherDisplay:10.37,2013-09-23 21:42:00,
2013-09-23 16:47:00,78.4,55.3,29.78,SSE,149,14.0,18.0,45,0.00,CLR,SKC,0.00,WeatherDisplay:10.37,2013-09-23 21:47:00,
2013-09-23 16:52:00,78.0,56.2,29.78,SSE,152,7.0,18.0,47,0.00,CLR,SKC,0.00,WeatherDisplay:10.37,2013-09-23 21:52:00,
2013-09-23 17:02:00,78.0,56.2,29.77,SSE,168,7.0,22.0,47,0.00,CLR,SKC,0.00,WeatherDisplay:10.37,2013-09-23 22:02:00,
2013-09-23 17:07:00,77.4,55.6,29.76,South,176,10.0,22.0,47,0.00,CLR,SKC,0.00,WeatherDisplay:10.37,2013-09-23 22:07:00,
2013-09-23 17:12:00,77.0,55.8,29.76,SSE,168,6.0,18.0,48,0.00,CLR,SKC,0.00,WeatherDisplay:10.37,2013-09-23 22:12:00,
2013-09-23 17:17:00,76.6,54.9,29.76,SSE,158,15.0,21.0,47,0.00,CLR,SKC,0.00,WeatherDisplay:10.37,2013-09-23 22:17:00,
2013-09-23 17:22:00,76.3,55.2,29.76,South,171,10.0,21.0,48,0.00,CLR,SKC,0.00,WeatherDisplay:10.37,2013-09-23 22:22:00,
2013-09-23 17:32:00,76.0,55.4,29.76,SSE,168,8.0,15.0,49,0.00,CLR,SKC,0.00,WeatherDisplay:10.37,2013-09-23 22:32:00,
2013-09-23 17:42:00,75.6,55.6,29.76,SW,223,2.0,13.0,50,0.00,CLR,SKC,0.00,WeatherDisplay:10.37,2013-09-23 22:42:00,
2013-09-23 17:47:00,75.4,56.0,29.77,SSW,200,7.0,14.0,51,0.00,CLR,SKC,0.00,WeatherDisplay:10.37,2013-09-23 22:47:00,
2013-09-23 17:52:00,75.3,55.4,29.77,SSE,150,7.0,15.0,50,0.00,CLR,SKC,0.00,WeatherDisplay:10.37,2013-09-23 22:52:00,
2013-09-23 17:57:00,75.2,55.9,29.77,SSE,157,6.0,14.0,51,0.00,CLR,SKC,0.00,WeatherDisplay:10.37,2013-09-23 22:57:00,
2013-09-23 18:07:00,74.8,54.9,29.77,South,176,8.0,18.0,50,0.00,CLR,SKC,0.00,WeatherDisplay:10.37,2013-09-23 23:07:00,
2013-09-23 18:12:00,74.7,55.3,29.77,South,180,7.0,16.0,51,0.00,CLR,SKC,0.00,WeatherDisplay:10.37,2013-09-23 23:12:00,
2013-09-23 18:17:00,74.5,55.2,29.77,SSE,160,7.0,16.0,51,0.00,CLR,SKC,0.00,WeatherDisplay:10.37,2013-09-23 23:17:00,
2013-09-23 18:22:00,74.4,55.6,29.76,SSE,151,3.0,16.0,52,0.00,CLR,SKC,0.00,WeatherDisplay:10.37,2013-09-23 23:22:00,
2013-09-23 18:27:00,74.2,54.9,29.77,SE,135,10.0,22.0,51,0.00,CLR,SKC,0.00,WeatherDisplay:10.37,2013-09-23 23:27:00,
2013-09-23 18:32:00,74.0,55.3,29.77,SE,125,3.0,12.0,52,0.00,CLR,SKC,0.00,WeatherDisplay:10.37,2013-09-23 23:32:00,
2013-09-23 18:37:00,73.8,55.1,29.77,SSE,168,6.0,14.0,52,0.00,CLR,SKC,0.00,WeatherDisplay:10.37,2013-09-23 23:37:00,
2013-09-23 18:47:00,73.6,55.4,29.77,SSE,166,6.0,13.0,53,0.00,CLR,SKC,0.00,WeatherDisplay:10.37,2013-09-23 23:47:00,
2013-09-23 18:52:00,73.3,55.7,29.77,South,182,2.0,14.0,54,0.00,CLR,SKC,0.00,WeatherDisplay:10.37,2013-09-23 23:52:00,
2013-09-23 18:57:00,73.0,55.4,29.76,South,171,2.0,20.0,54,0.00,CLR,SKC,0.00,WeatherDisplay:10.37,2013-09-23 23:57:00,
2013-09-23 19:07:00,72.4,55.8,29.77,SSE,167,5.0,7.0,56,0.00,CLR,SKC,0.00,WeatherDisplay:10.37,2013-09-24 00:07:00,
2013-09-23 19:12:00,72.1,55.5,29.77,South,174,2.0,10.0,56,0.00,CLR,SKC,0.00,WeatherDisplay:10.37,2013-09-24 00:12:00,
2013-09-23 19:22:00,71.5,56.0,29.77,SSE,153,2.0,8.0,58,0.00,CLR,SKC,0.00,WeatherDisplay:10.37,2013-09-24 00:22:00,
2013-09-23 19:27:00,71.2,55.7,29.78,SE,144,1.0,8.0,58,0.00,CLR,SKC,0.00,WeatherDisplay:10.37,2013-09-24 00:27:00,
2013-09-23 19:32:00,71.0,55.9,29.78,SE,142,2.0,8.0,59,0.00,CLR,SKC,0.00,WeatherDisplay:10.37,2013-09-24 00:32:00,
2013-09-23 19:42:00,70.4,55.8,29.78,SSE,148,1.0,8.0,60,0.00,CLR,SKC,0.00,WeatherDisplay:10.37,2013-09-24 00:42:00,
2013-09-23 19:47:00,70.1,56.1,29.78,SSE,161,3.0,8.0,61,0.00,CLR,SKC,0.00,WeatherDisplay:10.37,2013-09-24 00:47:00,
2013-09-23 19:52:00,69.9,55.8,29.79,South,176,1.0,5.0,61,0.00,CLR,SKC,0.00,WeatherDisplay:10.37,2013-09-24 00:52:00,
2013-09-23 19:57:00,69.6,56.0,29.79,South,179,1.0,3.0,62,0.00,CLR,SKC,0.00,WeatherDisplay:10.37,2013-09-24 00:57:00,
2013-09-23 20:07:00,68.8,56.2,29.80,South,190,0.0,3.0,64,0.00,CLR,SKC,0.00,WeatherDisplay:10.37,2013-09-24 01:07:00,
2013-09-23 20:12:00,68.5,55.9,29.80,South,172,1.0,3.0,64,0.00,CLR,SKC,0.00,WeatherDisplay:10.37,2013-09-24 01:12:00,
2013-09-23 20:17:00,68.3,56.0,29.80,SSE,160,0.0,5.0,65,0.00,CLR,SKC,0.00,WeatherDisplay:10.37,2013-09-24 01:17:00,
2013-09-23 20:22:00,68.0,56.2,29.81,SSE,167,0.0,2.0,66,0.00,CLR,SKC,0.00,WeatherDisplay:10.37,2013-09-24 01:22:00,
2013-09-23 20:27:00,67.7,55.9,29.81,SE,127,0.0,2.0,66,0.00,CLR,SKC,0.00,WeatherDisplay:10.37,2013-09-24 01:27:00,
2013-09-23 20:32:00,67.5,55.7,29.81,SE,138,1.0,3.0,66,0.00,CLR,SKC,0.00,WeatherDisplay:10.37,2013-09-24 01:32:00,
2013-09-23 20:37:00,67.3,55.9,29.81,SE,139,0.0,3.0,67,0.00,CLR,SKC,0.00,WeatherDisplay:10.37,2013-09-24 01:37:00,
2013-09-23 20:42:00,67.1,55.7,29.81,SE,133,0.0,2.0,67,0.00,CLR,SKC,0.00,WeatherDisplay:10.37,2013-09-24 01:42:00,
2013-09-23 20:47:00,66.9,55.6,29.81,SSE,147,1.0,3.0,67,0.00,CLR,SKC,0.00,WeatherDisplay:10.37,2013-09-24 01:47:00,
2013-09-23 20:52:00,66.9,55.6,29.81,SSE,164,0.0,3.0,67,0.00,CLR,SKC,0.00,WeatherDisplay:10.37,2013-09-24 01:52:00,
2013-09-23 20:57:00,66.9,56.0,29.81,SE,143,0.0,5.0,68,0.00,CLR,SKC,0.00,WeatherDisplay:10.37,2013-09-24 01:57:00,
2013-09-23 21:02:00,66.8,55.9,29.81,SSE,150,2.0,5.0,68,0.00,CLR,SKC,0.00,WeatherDisplay:10.37,2013-09-24 02:02:00,
2013-09-23 21:07:00,66.9,55.6,29.80,SE,144,2.0,7.0,67,0.00,CLR,SKC,0.00,WeatherDisplay:10.37,2013-09-24 02:07:00,
2013-09-23 21:12:00,67.0,55.7,29.80,SE,130,2.0,10.0,67,0.00,CLR,SKC,0.00,WeatherDisplay:10.37,2013-09-24 02:12:00,
2013-09-23 21:17:00,67.2,55.8,29.80,South,174,2.0,9.0,67,0.00,CLR,SKC,0.00,WeatherDisplay:10.37,2013-09-24 02:17:00,
2013-09-23 21:22:00,67.2,55.9,29.80,South,174,3.0,7.0,67,0.00,CLR,SKC,0.00,WeatherDisplay:10.37,2013-09-24 02:22:00,
2013-09-23 21:27:00,67.3,56.0,29.80,SSE,165,7.0,12.0,67,0.00,CLR,SKC,0.00,WeatherDisplay:10.37,2013-09-24 02:27:00,
2013-09-23 21:32:00,67.4,56.1,29.81,SSW,194,2.0,8.0,67,0.00,CLR,SKC,0.00,WeatherDisplay:10.37,2013-09-24 02:32:00,
2013-09-23 21:37:00,67.4,55.7,29.81,South,184,3.0,8.0,66,0.00,CLR,SKC,0.00,WeatherDisplay:10.37,2013-09-24 02:37:00,
2013-09-23 21:42:00,67.4,55.7,29.81,SSE,151,2.0,8.0,66,0.00,CLR,SKC,0.00,WeatherDisplay:10.37,2013-09-24 02:42:00,
2013-09-23 21:47:00,67.4,55.7,29.81,SSE,155,1.0,8.0,66,0.00,CLR,SKC,0.00,WeatherDisplay:10.37,2013-09-24 02:47:00,
2013-09-23 21:52:00,67.4,55.7,29.81,South,179,2.0,10.0,66,0.00,CLR,SKC,0.00,WeatherDisplay:10.37,2013-09-24 02:52:00,
2013-09-23 21:57:00,67.4,56.1,29.81,SSE,168,2.0,5.0,67,0.00,CLR,SKC,0.00,WeatherDisplay:10.37,2013-09-24 02:57:00,
2013-09-23 22:02:00,67.3,56.0,29.81,SSE,156,8.0,15.0,67,0.00,CLR,SKC,0.00,WeatherDisplay:10.37,2013-09-24 03:02:00,
2013-09-23 22:07:00,67.2,55.9,29.81,SE,133,2.0,8.0,67,0.00,CLR,SKC,0.00,WeatherDisplay:10.37,2013-09-24 03:07:00,
2013-09-23 22:12:00,67.1,55.8,29.81,SSE,150,3.0,12.0,67,0.00,CLR,SKC,0.00,WeatherDisplay:10.37,2013-09-24 03:12:00,
2013-09-23 22:17:00,67.0,55.7,29.81,SSE,154,5.0,12.0,67,0.00,CLR,SKC,0.00,WeatherDisplay:10.37,2013-09-24 03:17:00,
2013-09-23 22:22:00,67.0,56.0,29.81,SSE,152,2.0,8.0,68,0.00,CLR,SKC,0.00,WeatherDisplay:10.37,2013-09-24 03:22:00,
2013-09-23 22:27:00,67.0,56.1,29.81,SSE,151,5.0,12.0,68,0.00,CLR,SKC,0.00,WeatherDisplay:10.37,2013-09-24 03:27:00,
2013-09-23 22:32:00,67.0,56.1,29.81,SE,142,6.0,20.0,68,0.00,CLR,SKC,0.00,WeatherDisplay:10.37,2013-09-24 03:32:00,
2013-09-23 22:37:00,67.1,56.2,29.81,SE,138,2.0,8.0,68,0.00,CLR,SKC,0.00,WeatherDisplay:10.37,2013-09-24 03:37:00,
2013-09-23 22:42:00,67.0,56.1,29.80,SE,146,1.0,10.0,68,0.00,CLR,SKC,0.00,WeatherDisplay:10.37,2013-09-24 03:42:00,
2013-09-23 22:47:00,67.0,56.1,29.80,SSE,163,1.0,12.0,68,0.00,CLR,SKC,0.00,WeatherDisplay:10.37,2013-09-24 03:47:00,
2013-09-23 22:52:00,67.1,56.2,29.80,SSE,167,2.0,15.0,68,0.00,CLR,SKC,0.00,WeatherDisplay:10.37,2013-09-24 03:52:00,
2013-09-23 22:57:00,67.2,56.3,29.80,SSE,158,3.0,15.0,68,0.00,CLR,SKC,0.00,WeatherDisplay:10.37,2013-09-24 03:57:00,
2013-09-23 23:02:00,67.1,56.2,29.80,SSE,166,5.0,16.0,68,0.00,CLR,SKC,0.00,WeatherDisplay:10.37,2013-09-24 04:02:00,
2013-09-23 23:07:00,67.0,56.1,29.80,South,191,5.0,15.0,68,0.00,CLR,SKC,0.00,WeatherDisplay:10.37,2013-09-24 04:07:00,
2013-09-23 23:12:00,66.9,56.4,29.80,South,178,7.0,12.0,69,0.00,CLR,SKC,0.00,WeatherDisplay:10.37,2013-09-24 04:12:00,
2013-09-23 23:22:00,66.7,56.2,29.80,SSE,159,6.0,13.0,69,0.00,CLR,SKC,0.00,WeatherDisplay:10.37,2013-09-24 04:22:00,
2013-09-23 23:27:00,66.5,56.4,29.80,South,176,6.0,15.0,70,0.00,CLR,SKC,0.00,WeatherDisplay:10.37,2013-09-24 04:27:00,
2013-09-23 23:32:00,66.5,56.4,29.79,South,173,5.0,13.0,70,0.00,CLR,SKC,0.00,WeatherDisplay:10.37,2013-09-24 04:32:00,
2013-09-23 23:37:00,66.4,56.3,29.79,SSE,158,3.0,12.0,70,0.00,CLR,SKC,0.00,WeatherDisplay:10.37,2013-09-24 04:37:00,
2013-09-23 23:42:00,66.3,56.2,29.79,SSE,167,3.0,18.0,70,0.00,CLR,SKC,0.00,WeatherDisplay:10.37,2013-09-24 04:42:00,
2013-09-23 23:47:00,66.3,56.6,29.79,South,188,5.0,15.0,71,0.00,CLR,SKC,0.00,WeatherDisplay:10.37,2013-09-24 04:47:00,
2013-09-23 23:52:00,66.3,56.6,29.79,SSE,155,5.0,15.0,71,0.00,CLR,SKC,0.00,WeatherDisplay:10.37,2013-09-24 04:52:00,
2013-09-23 23:57:00,66.2,56.5,29.79,SSE,149,5.0,18.0,71,0.00,CLR,SKC,0.00,WeatherDisplay:10.37,2013-09-24 04:57:00,